[[{"header":{"parameterUnit":"m.s-1","parameterCategory":1,"la1":30.2991,"la2":30.254,"lo1":-89.0895,"lo2":-89.0444,"dy":0.0017,"dx":0.0017,"nx":28,"ny":28,"refTime":"2023-10-12T21:00:00:Z","depth":0,"parameterNumber":2,"parameterNumberName":"U-component_of_WINDS"},"data":[0,0,0,0,0,0,0,0,0,0,0,0,0,0,0,0,0,0,0,0,0,0,0,0,0,0,0,0,0,0,0,0,0,0,0,0,0,0,0,0,0,0,0,0,0,0,0,0,0,0,0,0,0,0,0,0,0,0,-1.8643,-1.8643,0,-1.8621,-1.8621,-1.8621,-1.8565,-1.8564,-1.8563,-1.8562,-1.8541,-1.8541,-1.8542,0,0,0,0,0,0,0,0,0,0,0,0,0,-1.864,-1.864,-1.8643,-1.8643,-1.8643,-1.8621,-1.8621,-1.862,-1.8565,-1.8564,-1.8563,-1.8561,-1.8541,-1.8541,-1.8542,0,0,0,0,0,0,0,0,0,0,0,0,0,-1.8632,-1.8641,-1.8643,-1.8613,-1.861,-1.8621,-1.8621,-1.862,-1.8566,-1.8564,-1.8562,-1.856,-1.854,-1.8541,-1.8542,-1.8582,0,0,-1.8545,-1.8545,0,0,0,0,0,0,0,0,-1.8633,-1.8632,-1.8617,-1.8615,-1.8611,-1.8594,-1.8612,-1.8608,-1.8566,-1.8582,-1.8562,-1.856,-1.856,-1.8559,-1.8559,-1.8581,-1.858,-1.8545,-1.8545,-1.8545,-1.8546,0,0,0,0,0,0,0,-1.8633,-1.8633,-1.8635,-1.8617,-1.8614,-1.8601,-1.8597,-1.8611,-1.8581,-1.8581,-1.8577,-1.8575,-1.8558,-1.8558,-1.8558,-1.858,-1.8545,-1.8545,-1.8546,-1.8546,-1.8634,-1.8636,0,0,0,0,0,0,-1.8638,-1.8634,-1.8635,-1.8634,-1.8618,-1.8602,-1.8599,-1.8601,-1.8581,-1.8576,-1.8576,-1.8572,-1.8558,-1.8557,-1.8557,-1.8603,-1.8545,-1.8546,-1.8547,-1.8633,-1.8635,-1.8637,0,0,0,0,0,0,-1.8638,-1.8639,-1.8636,-1.8633,-1.8631,-1.8604,-1.8608,-1.8602,-1.8602,-1.8578,-1.8572,-1.8582,-1.8556,-1.8556,-1.8576,-1.8601,-1.8547,-1.8547,-1.863,-1.8633,-1.8636,-1.8695,0,0,0,0,0,0,-1.8638,-1.8639,-1.8654,-1.8633,-1.8632,-1.8655,-1.8609,-1.8603,-1.8603,-1.8598,-1.8581,-1.8577,-1.8555,-1.8575,-1.8577,-1.8601,-1.8548,-1.8628,-1.8632,-1.8635,-1.869,-1.8699,-1.8707,0,0,0,0,0,-1.8638,-1.8671,-1.8655,-1.8655,-1.8649,-1.8657,-1.8656,-1.8629,-1.8605,-1.862,-1.8605,-1.8577,-1.8598,-1.8578,-1.8579,-1.8604,-1.8626,-1.8631,-1.8635,-1.8687,-1.8697,-1.8706,0,0,0,0,0,0,-1.8696,-1.8668,-1.8649,-1.8676,-1.8669,-1.8647,-1.8665,-1.8641,-1.8641,-1.8636,-1.8604,-1.8601,-1.8626,-1.8617,-1.8595,-1.8642,-1.8608,-1.8613,-1.8647,-1.8657,-1.8665,-1.8666,-1.8549,0,0,0,0,0,-1.8711,-1.8719,-1.8695,-1.8721,-1.8719,-1.8693,-1.8695,-1.8675,-1.8667,-1.8664,-1.865,-1.8643,-1.8648,-1.8652,-1.8655,-1.8689,-1.8685,-1.8707,-1.8715,-1.8722,-1.8726,-1.8744,-1.8753,-1.8651,-1.8651,-1.8651,0,0,-1.8744,-1.873,-1.8737,-1.8733,-1.8725,-1.8734,-1.8691,-1.8702,-1.8709,-1.8666,-1.8684,-1.8673,-1.8664,-1.8691,-1.8702,-1.8685,-1.8754,-1.8727,-1.8733,-1.8733,-1.8749,-1.8759,-1.8767,-1.8654,-1.8653,-1.8653,0,0,-1.8808,-1.8799,-1.8819,-1.8812,-1.8801,-1.8783,-1.8788,-1.877,-1.8761,-1.8779,-1.8746,-1.8755,-1.8764,-1.8758,-1.8757,-1.882,-1.8795,-1.8822,-1.8864,-1.8882,-1.889,-1.8897,-1.8919,-1.8928,-1.8827,-1.8827,-1.8827,0,-1.8851,-1.8863,-1.8833,-1.8847,-1.8846,-1.8807,-1.8828,-1.8823,-1.8814,-1.8814,-1.8794,-1.8805,-1.8796,-1.8822,-1.8837,-1.8837,-1.8842,-1.8824,-1.8891,-1.8898,-1.8904,-1.8925,-1.8933,-1.883,-1.883,-1.8829,-1.8829,0,-1.8915,-1.8925,-1.8943,-1.8934,-1.8935,-1.8953,-1.8927,-1.8932,-1.8912,-1.8897,-1.8916,-1.8904,-1.8904,-1.8908,-1.889,-1.8931,-1.8921,-1.8897,-1.8861,-1.8917,-1.8937,-1.8944,-1.8835,-1.8834,-1.8833,-1.8832,0,0,-1.9015,-1.8989,-1.8997,-1.8992,-1.8977,-1.8984,-1.9,-1.8999,-1.9004,-1.9,-1.9012,-1.9021,-1.8999,-1.8997,-1.8977,-1.8993,-1.9044,-1.8966,-1.8966,-1.8981,-1.9089,-1.9108,-1.9117,-1.9027,-1.9028,-1.903,-1.909,0,-1.9075,-1.91,-1.9075,-1.9105,-1.9114,-1.9077,-1.9091,-1.9083,-1.907,-1.9075,-1.9061,-1.9067,-1.9037,-1.9036,-1.9049,-1.9035,-1.9065,-1.903,-1.9039,-1.904,-1.9042,-1.9127,-1.9147,-1.9204,-1.9097,-1.9099,-1.91,0,-1.9149,-1.9147,-1.9178,-1.9161,-1.9163,-1.9176,-1.9174,-1.918,-1.9171,-1.916,-1.9158,-1.9134,-1.915,-1.9116,-1.9137,-1.9113,-1.9116,-1.9109,-1.9111,-1.9111,-1.9073,-1.9129,-1.9222,-1.923,-1.9111,-1.911,-1.9109,0,-1.9218,-1.9223,-1.9243,-1.924,-1.922,-1.923,-1.9223,-1.9212,-1.9214,-1.9212,-1.9213,-1.9213,-1.9213,-1.9215,-1.9192,-1.9169,-1.9216,-1.918,-1.9208,-1.9208,-1.9219,-1.9218,-1.9313,-1.9221,-1.9221,-1.9221,-1.9221,0,-1.9288,-1.9309,-1.9273,-1.9285,-1.9308,-1.9278,-1.9302,-1.929,-1.9281,-1.9291,-1.9259,-1.9269,-1.9238,-1.9245,-1.9227,-1.9247,-1.9248,-1.924,-1.9235,-1.9243,-1.9244,-1.9244,-1.9239,-1.9223,-1.9222,-1.9222,-1.9222,0,-1.9369,-1.9346,-1.9365,-1.9345,-1.934,-1.9358,-1.934,-1.9351,-1.9336,-1.9348,-1.935,-1.9326,-1.9332,-1.9309,-1.9312,-1.93,-1.933,-1.9319,-1.9333,-1.9329,-1.9358,-1.9356,-1.9456,-1.9468,-1.9369,-1.937,-1.9371,0,-1.9415,-1.943,-1.9411,-1.9415,-1.9409,-1.9416,-1.9417,-1.9389,-1.9392,-1.9383,-1.9395,-1.9399,-1.94,-1.9412,-1.9396,-1.9398,-1.9386,-1.9421,-1.9386,-1.9393,-1.9386,-1.9386,-1.9387,-1.9428,-1.9429,-1.943,-1.9431,0,-1.9499,-1.9487,-1.949,-1.9489,-1.9491,-1.9489,-1.9485,-1.949,-1.946,-1.9464,-1.947,-1.9471,-1.9474,-1.9479,-1.9477,-1.947,-1.9446,-1.9442,-1.9449,-1.9457,-1.9464,-1.946,-1.9352,-1.944,-1.9439,-1.9439,-1.9438,-1.9438,-1.9564,-1.9575,-1.9564,-1.9568,-1.9562,-1.9559,-1.9568,-1.9553,-1.9558,-1.9557,-1.9541,-1.955,-1.9541,-1.9537,-1.9532,-1.954,-1.9523,-1.9533,-1.9535,-1.9538,-1.9543,-1.9463,-1.9539,-1.9539,-1.9539,-1.9539,-1.9538,0,-1.9646,-1.9637,-1.9641,-1.9636,-1.9639,-1.9616,-1.961,-1.9615,-1.9623,-1.9616,-1.9618,-1.9626,-1.963,-1.9614,-1.9616,-1.9625,-1.9614,-1.9626,-1.9625,-1.9624,-1.9557,-1.9551,-1.9635,-1.9635,-1.9635,-1.9635,-1.9635,-1.9635,-1.9689,-1.9707,-1.9694,-1.971,-1.97,-1.9709,-1.9708,-1.9705,-1.9699,-1.9709,-1.9712,-1.9701,-1.9691,-1.9692,-1.9695,-1.969,-1.9692,-1.9708,-1.97,-1.9638,-1.9629,-1.962,-1.9614,-1.9709,-1.9709,-1.9766,-1.9766,-1.9767]},{"header":{"parameterUnit":"m.s-1","parameterCategory":1,"la1":30.2991,"la2":30.254,"lo1":-89.0895,"lo2":-89.0444,"dy":0.0017,"dx":0.0017,"nx":28,"ny":28,"refTime":"2023-10-12T21:00:00:Z","depth":0,"parameterNumber":3,"parameterNumberName":"V-component_of_WINDS"},"data":[0,0,0,0,0,0,0,0,0,0,0,0,0,0,0,0,0,0,0,0,0,0,0,0,0,0,0,0,0,0,0,0,0,0,0,0,0,0,0,0,0,0,0,0,0,0,0,0,0,0,0,0,0,0,0,0,0,0,-1.4127,-1.4128,0,-1.4202,-1.4203,-1.4204,-1.4216,-1.4216,-1.4215,-1.4214,-1.4291,-1.4294,-1.4296,0,0,0,0,0,0,0,0,0,0,0,0,0,-1.3994,-1.3997,-1.4127,-1.4128,-1.4129,-1.4202,-1.4203,-1.4204,-1.4216,-1.4216,-1.4215,-1.4214,-1.429,-1.4293,-1.4296,0,0,0,0,0,0,0,0,0,0,0,0,0,-1.4059,-1.3998,-1.4127,-1.4144,-1.4146,-1.4202,-1.4203,-1.4204,-1.4217,-1.4216,-1.4215,-1.4214,-1.4289,-1.4293,-1.4297,-1.434,0,0,-1.4309,-1.4311,0,0,0,0,0,0,0,0,-1.4055,-1.4064,-1.4141,-1.4143,-1.4146,-1.4199,-1.4184,-1.425,-1.4217,-1.419,-1.4214,-1.4213,-1.4261,-1.4267,-1.4283,-1.4344,-1.4347,-1.4309,-1.4312,-1.4313,-1.4315,0,0,0,0,0,0,0,-1.4051,-1.4061,-1.4157,-1.4142,-1.4145,-1.4148,-1.4156,-1.4197,-1.423,-1.4192,-1.4193,-1.4202,-1.4262,-1.428,-1.4285,-1.4348,-1.4309,-1.4313,-1.4315,-1.4317,-1.4448,-1.4449,0,0,0,0,0,0,-1.4043,-1.4057,-1.4154,-1.4159,-1.4097,-1.4151,-1.416,-1.4183,-1.423,-1.4236,-1.4203,-1.4202,-1.4273,-1.4281,-1.4288,-1.4343,-1.4313,-1.4317,-1.4319,-1.4447,-1.4448,-1.4449,0,0,0,0,0,0,-1.404,-1.4052,-1.4151,-1.4108,-1.4121,-1.4154,-1.418,-1.4185,-1.4202,-1.4238,-1.4243,-1.4214,-1.4273,-1.4283,-1.4327,-1.4345,-1.4319,-1.4322,-1.4446,-1.4447,-1.4449,-1.4451,0,0,0,0,0,0,-1.4037,-1.4051,-1.4068,-1.4109,-1.4123,-1.419,-1.4181,-1.4187,-1.4209,-1.4209,-1.425,-1.4256,-1.4273,-1.4321,-1.4331,-1.435,-1.4326,-1.4444,-1.4446,-1.4448,-1.445,-1.4453,-1.4456,0,0,0,0,0,-1.4032,-1.4066,-1.4069,-1.4081,-1.4146,-1.4191,-1.4199,-1.4218,-1.421,-1.4228,-1.425,-1.4255,-1.4341,-1.4326,-1.4337,-1.4358,-1.4443,-1.4446,-1.4448,-1.4449,-1.4452,-1.4455,0,0,0,0,0,0,-1.4027,-1.4072,-1.4075,-1.4124,-1.4153,-1.4193,-1.4216,-1.4221,-1.4254,-1.4253,-1.4274,-1.4284,-1.4327,-1.4347,-1.4329,-1.4402,-1.4392,-1.4396,-1.4388,-1.4392,-1.4395,-1.439,-1.4329,0,0,0,0,0,-1.4031,-1.4064,-1.4101,-1.414,-1.4155,-1.4182,-1.4203,-1.4215,-1.4246,-1.4259,-1.4285,-1.4315,-1.4349,-1.4371,-1.4405,-1.4452,-1.4461,-1.4471,-1.4474,-1.4476,-1.4481,-1.4507,-1.4513,-1.4458,-1.4458,-1.4458,0,0,-1.4041,-1.407,-1.4089,-1.414,-1.4164,-1.4198,-1.4193,-1.4229,-1.4254,-1.4264,-1.4309,-1.4328,-1.4363,-1.441,-1.4431,-1.4427,-1.4498,-1.448,-1.4481,-1.4485,-1.4511,-1.4516,-1.452,-1.4459,-1.4459,-1.4459,0,0,-1.4077,-1.4101,-1.4136,-1.4161,-1.4197,-1.4215,-1.4223,-1.4262,-1.4275,-1.432,-1.4328,-1.4358,-1.4416,-1.4441,-1.4461,-1.4504,-1.4509,-1.4514,-1.4529,-1.4555,-1.4559,-1.4563,-1.4579,-1.4585,-1.4518,-1.4518,-1.4518,0,-1.4084,-1.4136,-1.4154,-1.4189,-1.4211,-1.4221,-1.4257,-1.4279,-1.4325,-1.434,-1.4334,-1.4407,-1.4432,-1.4484,-1.4494,-1.451,-1.452,-1.451,-1.4557,-1.4561,-1.4565,-1.4581,-1.4587,-1.4518,-1.4518,-1.4518,-1.4518,0,-1.4143,-1.4179,-1.4202,-1.4246,-1.4271,-1.4306,-1.4329,-1.4352,-1.4361,-1.4379,-1.4424,-1.4453,-1.4492,-1.4505,-1.4514,-1.4558,-1.4555,-1.4553,-1.4543,-1.4571,-1.4586,-1.4592,-1.4519,-1.4519,-1.4519,-1.4518,0,0,-1.418,-1.4232,-1.4241,-1.4261,-1.4301,-1.4329,-1.4364,-1.4402,-1.4421,-1.4451,-1.4482,-1.453,-1.4528,-1.4551,-1.4563,-1.4585,-1.4618,-1.458,-1.4582,-1.4587,-1.4669,-1.4671,-1.4677,-1.462,-1.4622,-1.4623,-1.4666,0,-1.4221,-1.4285,-1.4302,-1.4356,-1.4389,-1.4398,-1.4428,-1.4456,-1.4474,-1.4504,-1.4523,-1.4557,-1.4551,-1.4565,-1.4587,-1.4609,-1.4635,-1.4606,-1.465,-1.4651,-1.4642,-1.4685,-1.4688,-1.4728,-1.4672,-1.4673,-1.4673,0,-1.4278,-1.431,-1.4367,-1.4403,-1.4417,-1.4445,-1.4481,-1.4509,-1.454,-1.4552,-1.4576,-1.4586,-1.4622,-1.4609,-1.466,-1.464,-1.4659,-1.4672,-1.4674,-1.468,-1.4665,-1.4694,-1.4741,-1.4747,-1.4683,-1.4682,-1.4681,0,-1.4301,-1.4357,-1.4399,-1.4415,-1.4458,-1.4477,-1.4495,-1.4525,-1.4547,-1.4578,-1.4593,-1.4627,-1.4647,-1.4673,-1.4692,-1.468,-1.4741,-1.4729,-1.4752,-1.4751,-1.4766,-1.4765,-1.4818,-1.4775,-1.4775,-1.4775,-1.4775,0,-1.4346,-1.4381,-1.4409,-1.4435,-1.4475,-1.4493,-1.4531,-1.4549,-1.4576,-1.4605,-1.4614,-1.4642,-1.4664,-1.4694,-1.4708,-1.4748,-1.4757,-1.4767,-1.477,-1.4767,-1.4766,-1.4781,-1.4779,-1.4776,-1.4776,-1.4776,-1.4775,0,-1.4378,-1.4399,-1.4445,-1.4481,-1.449,-1.4518,-1.4548,-1.4573,-1.459,-1.4627,-1.4637,-1.4664,-1.4699,-1.472,-1.4765,-1.4774,-1.4819,-1.4821,-1.4809,-1.4811,-1.4832,-1.4831,-1.4898,-1.4908,-1.4857,-1.4858,-1.4858,0,-1.4407,-1.4434,-1.4472,-1.4492,-1.4511,-1.4544,-1.4566,-1.4584,-1.4606,-1.4643,-1.4664,-1.47,-1.473,-1.4787,-1.481,-1.4844,-1.4848,-1.4869,-1.4853,-1.4848,-1.4849,-1.4848,-1.4851,-1.4872,-1.4872,-1.4873,-1.4873,0,-1.4455,-1.4463,-1.4495,-1.453,-1.4555,-1.4584,-1.4612,-1.4628,-1.465,-1.4675,-1.4711,-1.4735,-1.478,-1.4816,-1.4852,-1.4871,-1.4876,-1.4877,-1.4885,-1.4882,-1.4875,-1.488,-1.4818,-1.4876,-1.4876,-1.4876,-1.4876,-1.4876,-1.4487,-1.4512,-1.4542,-1.4577,-1.46,-1.4625,-1.4651,-1.467,-1.4701,-1.474,-1.4748,-1.4787,-1.4816,-1.4865,-1.4884,-1.4915,-1.4911,-1.4921,-1.4924,-1.4926,-1.4928,-1.4868,-1.4921,-1.4921,-1.4921,-1.4921,-1.4921,0,-1.4537,-1.4557,-1.4588,-1.4627,-1.4654,-1.4655,-1.4686,-1.4708,-1.4742,-1.4769,-1.4799,-1.484,-1.4875,-1.49,-1.4935,-1.4954,-1.4958,-1.4963,-1.4963,-1.4967,-1.4929,-1.492,-1.496,-1.496,-1.496,-1.496,-1.496,-1.496,-1.4567,-1.4608,-1.462,-1.4672,-1.4692,-1.473,-1.4747,-1.4771,-1.4793,-1.4839,-1.4867,-1.4883,-1.491,-1.4946,-1.4978,-1.4984,-1.4997,-1.5003,-1.501,-1.4974,-1.497,-1.4966,-1.4957,-1.5005,-1.5005,-1.5046,-1.5046,-1.5047]}]]